Time,TemperatureF,DewpointF,PressureIn,WindDirection,WindDirectionDegrees,WindSpeedMPH,WindSpeedGustMPH,Humidity,HourlyPrecipIn,Conditions,Clouds,dailyrainin,SoftwareType,DateUTC
2013-11-26 00:10:00,29.7,13.0,30.56,ESE,109,0.0,4.0,51,0.00,,,0.00,weatherlink.com 1.10,2013-11-26 05:10:00,
2013-11-26 00:25:00,29.7,13.0,30.55,ESE,117,1.0,3.0,51,0.00,,,0.00,weatherlink.com 1.10,2013-11-26 05:25:00,
2013-11-26 00:40:00,29.6,14.0,30.54,ESE,103,4.0,4.0,52,0.00,,,0.00,weatherlink.com 1.10,2013-11-26 05:40:00,
2013-11-26 00:55:00,29.6,14.0,30.55,ESE,114,0.0,3.0,52,0.00,,,0.00,weatherlink.com 1.10,2013-11-26 05:55:00,
2013-11-26 01:10:00,29.6,14.0,30.55,ESE,103,0.0,3.0,53,0.00,,,0.00,weatherlink.com 1.10,2013-11-26 06:10:00,
2013-11-26 01:25:00,29.5,15.0,30.56,ESE,117,0.0,4.0,54,0.00,,,0.00,weatherlink.com 1.10,2013-11-26 06:25:00,
2013-11-26 01:40:00,29.7,14.0,30.55,SSE,161,0.0,8.0,52,0.00,,,0.00,weatherlink.com 1.10,2013-11-26 06:40:00,
2013-11-26 01:55:00,30.2,14.0,30.55,ENE,68,1.0,4.0,51,0.00,,,0.00,weatherlink.com 1.10,2013-11-26 06:55:00,
2013-11-26 02:10:00,30.4,14.0,30.54,SE,124,0.0,3.0,51,0.00,,,0.00,weatherlink.com 1.10,2013-11-26 07:10:00,
2013-11-26 02:25:00,30.5,15.0,30.54,ESE,121,1.0,5.0,52,0.00,,,0.00,weatherlink.com 1.10,2013-11-26 07:25:00,
2013-11-26 02:40:00,30.3,14.0,30.53,SSE,158,0.0,3.0,52,0.00,,,0.00,weatherlink.com 1.10,2013-11-26 07:40:00,
2013-11-26 02:55:00,30.2,15.0,30.53,ESE,121,0.0,3.0,54,0.00,,,0.00,weatherlink.com 1.10,2013-11-26 07:55:00,
2013-11-26 03:10:00,30.2,15.0,30.53,East,97,0.0,3.0,53,0.00,,,0.00,weatherlink.com 1.10,2013-11-26 08:10:00,
2013-11-26 03:25:00,30.3,14.0,30.52,ESE,103,0.0,2.0,52,0.00,,,0.00,weatherlink.com 1.10,2013-11-26 08:25:00,
2013-11-26 03:40:00,30.2,15.0,30.51,East,96,0.0,3.0,54,0.00,,,0.00,weatherlink.com 1.10,2013-11-26 08:40:00,
2013-11-26 03:55:00,30.1,16.0,30.51,ESE,117,3.0,4.0,55,0.00,,,0.00,weatherlink.com 1.10,2013-11-26 08:55:00,
2013-11-26 04:10:00,30.1,15.0,30.52,ESE,112,1.0,4.0,54,0.00,,,0.00,weatherlink.com 1.10,2013-11-26 09:10:00,
2013-11-26 04:25:00,30.1,16.0,30.53,SSE,163,3.0,7.0,56,0.00,,,0.00,weatherlink.com 1.10,2013-11-26 09:25:00,
2013-11-26 04:40:00,30.0,16.0,30.53,NE,49,0.0,3.0,57,0.00,,,0.00,weatherlink.com 1.10,2013-11-26 09:40:00,
2013-11-26 04:55:00,30.0,17.0,30.53,ESE,117,0.0,2.0,58,0.00,,,0.00,weatherlink.com 1.10,2013-11-26 09:55:00,
2013-11-26 05:10:00,29.8,17.0,30.54,ESE,117,0.0,1.0,58,0.00,,,0.00,weatherlink.com 1.10,2013-11-26 10:10:00,
2013-11-26 05:25:00,29.7,16.0,30.54,ESE,123,0.0,3.0,58,0.00,,,0.00,weatherlink.com 1.10,2013-11-26 10:25:00,
2013-11-26 05:40:00,29.7,16.0,30.54,SE,140,5.0,5.0,58,0.00,,,0.00,weatherlink.com 1.10,2013-11-26 10:40:00,
2013-11-26 05:55:00,29.7,16.0,30.54,ESE,113,2.0,4.0,58,0.00,,,0.00,weatherlink.com 1.10,2013-11-26 10:55:00,
2013-11-26 06:10:00,29.7,17.0,30.55,East,92,1.0,3.0,59,0.00,,,0.00,weatherlink.com 1.10,2013-11-26 11:10:00,
2013-11-26 06:25:00,29.7,16.0,30.55,SE,125,1.0,4.0,57,0.00,,,0.00,weatherlink.com 1.10,2013-11-26 11:25:00,
2013-11-26 06:40:00,29.7,16.0,30.55,SE,140,0.0,3.0,57,0.00,,,0.00,weatherlink.com 1.10,2013-11-26 11:40:00,
2013-11-26 06:55:00,29.8,17.0,30.55,SSE,147,0.0,4.0,58,0.00,,,0.00,weatherlink.com 1.10,2013-11-26 11:55:00,
2013-11-26 07:10:00,29.9,17.0,30.55,East,92,2.0,5.0,58,0.00,,,0.00,weatherlink.com 1.10,2013-11-26 12:10:00,
2013-11-26 07:25:00,30.1,17.0,30.54,NE,42,1.0,4.0,58,0.00,,,0.00,weatherlink.com 1.10,2013-11-26 12:25:00,
2013-11-26 07:40:00,30.2,17.0,30.55,ESE,106,0.0,2.0,58,0.00,,,0.00,weatherlink.com 1.10,2013-11-26 12:40:00,
2013-11-26 07:55:00,30.5,18.0,30.55,ENE,74,3.0,6.0,59,0.00,,,0.00,weatherlink.com 1.10,2013-11-26 12:55:00,
2013-11-26 08:10:00,30.6,18.0,30.56,SE,128,2.0,3.0,61,0.00,,,0.00,weatherlink.com 1.10,2013-11-26 13:10:00,
2013-11-26 08:25:00,30.6,20.0,30.57,South,181,0.0,3.0,64,0.00,,,0.00,weatherlink.com 1.10,2013-11-26 13:25:00,
2013-11-26 08:40:00,30.5,20.0,30.56,SSW,198,1.0,4.0,66,0.00,,,0.00,weatherlink.com 1.10,2013-11-26 13:40:00,
2013-11-26 08:55:00,30.4,21.0,30.55,SW,233,0.0,2.0,67,0.00,,,0.00,weatherlink.com 1.10,2013-11-26 13:55:00,
2013-11-26 09:10:00,30.7,21.0,30.56,SW,233,0.0,1.0,67,0.00,,,0.00,weatherlink.com 1.10,2013-11-26 14:10:00,
2013-11-26 09:25:00,31.3,20.0,30.55,SW,233,0.0,2.0,63,0.00,,,0.00,weatherlink.com 1.10,2013-11-26 14:25:00,
2013-11-26 09:40:00,32.0,19.0,30.55,ESE,119,1.0,2.0,59,0.00,,,0.00,weatherlink.com 1.10,2013-11-26 14:40:00,
2013-11-26 09:55:00,32.1,19.0,30.56,ENE,70,0.0,4.0,60,0.00,,,0.00,weatherlink.com 1.10,2013-11-26 14:55:00,
2013-11-26 10:10:00,32.5,20.0,30.55,SE,138,0.0,3.0,60,0.00,,,0.00,weatherlink.com 1.10,2013-11-26 15:10:00,
2013-11-26 10:25:00,32.7,20.0,30.55,SE,132,3.0,3.0,61,0.00,,,0.00,weatherlink.com 1.10,2013-11-26 15:25:00,
2013-11-26 10:40:00,33.1,20.0,30.54,NE,42,1.0,4.0,60,0.00,,,0.00,weatherlink.com 1.10,2013-11-26 15:40:00,
2013-11-26 10:55:00,33.3,22.0,30.53,ESE,107,0.0,2.0,64,0.00,,,0.00,weatherlink.com 1.10,2013-11-26 15:55:00,
2013-11-26 11:10:00,33.6,23.0,30.52,ESE,105,0.0,2.0,64,0.00,,,0.00,weatherlink.com 1.10,2013-11-26 16:10:00,
2013-11-26 11:25:00,33.8,23.0,30.52,NE,54,3.0,6.0,65,0.00,,,0.00,weatherlink.com 1.10,2013-11-26 16:25:00,
2013-11-26 11:40:00,34.2,23.0,30.51,South,173,3.0,3.0,65,0.00,,,0.00,weatherlink.com 1.10,2013-11-26 16:40:00,
2013-11-26 11:55:00,33.9,23.0,30.52,ESE,119,2.0,5.0,65,0.00,,,0.00,weatherlink.com 1.10,2013-11-26 16:55:00,
2013-11-26 12:10:00,33.9,23.0,30.52,East,80,5.0,5.0,64,0.00,,,0.00,weatherlink.com 1.10,2013-11-26 17:10:00,
2013-11-26 12:25:00,33.9,22.0,30.51,NW,319,0.0,6.0,63,0.00,,,0.00,weatherlink.com 1.10,2013-11-26 17:25:00,
2013-11-26 12:40:00,34.3,22.0,30.50,ESE,121,1.0,4.0,61,0.00,,,0.00,weatherlink.com 1.10,2013-11-26 17:40:00,
2013-11-26 12:56:00,34.3,22.0,30.50,NNW,337,0.0,4.0,62,0.00,,,0.00,weatherlink.com 1.10,2013-11-26 17:56:00,
2013-11-26 13:11:00,34.6,23.0,30.49,ESE,119,0.0,2.0,63,0.00,,,0.00,weatherlink.com 1.10,2013-11-26 18:11:00,
2013-11-26 13:26:00,34.7,24.0,30.48,South,181,1.0,4.0,64,0.00,,,0.00,weatherlink.com 1.10,2013-11-26 18:26:00,
2013-11-26 13:41:00,34.4,25.0,30.48,SSE,150,0.0,5.0,68,0.00,,,0.00,weatherlink.com 1.10,2013-11-26 18:41:00,
2013-11-26 13:56:00,34.6,25.0,30.48,WSW,247,2.0,3.0,67,0.00,,,0.00,weatherlink.com 1.10,2013-11-26 18:56:00,
2013-11-26 14:11:00,34.4,25.0,30.47,SSE,147,0.0,3.0,68,0.00,,,0.00,weatherlink.com 1.10,2013-11-26 19:11:00,
2013-11-26 14:26:00,34.0,26.0,30.46,NW,307,1.0,4.0,72,0.00,,,0.00,weatherlink.com 1.10,2013-11-26 19:26:00,
2013-11-26 14:41:00,33.7,27.0,30.46,NW,311,1.0,3.0,77,0.00,,,0.00,weatherlink.com 1.10,2013-11-26 19:41:00,
2013-11-26 14:56:00,33.3,27.0,30.46,NW,311,2.0,2.0,79,0.00,,,0.00,weatherlink.com 1.10,2013-11-26 19:56:00,
2013-11-26 15:11:00,32.9,28.0,30.45,NW,311,0.0,2.0,81,0.00,,,0.00,weatherlink.com 1.10,2013-11-26 20:11:00,
2013-11-26 15:26:00,32.6,28.0,30.44,NW,311,1.0,2.0,84,0.00,,,0.00,weatherlink.com 1.10,2013-11-26 20:26:00,
2013-11-26 15:41:00,32.4,29.0,30.44,NW,311,0.0,1.0,86,0.00,,,0.00,weatherlink.com 1.10,2013-11-26 20:41:00,
2013-11-26 15:56:00,32.3,29.0,30.43,NW,311,0.0,0.0,87,0.00,,,0.00,weatherlink.com 1.10,2013-11-26 20:56:00,
2013-11-26 16:11:00,32.1,29.0,30.43,NW,311,0.0,2.0,88,0.00,,,0.00,weatherlink.com 1.10,2013-11-26 21:11:00,
2013-11-26 16:26:00,32.1,30.0,30.43,NW,311,0.0,2.0,90,0.01,,,0.01,weatherlink.com 1.10,2013-11-26 21:26:00,
2013-11-26 16:41:00,32.1,30.0,30.43,NW,311,0.0,1.0,91,0.01,,,0.01,weatherlink.com 1.10,2013-11-26 21:41:00,
2013-11-26 16:56:00,32.0,30.0,30.42,NW,311,0.0,1.0,91,0.02,,,0.02,weatherlink.com 1.10,2013-11-26 21:56:00,
2013-11-26 17:11:00,31.9,30.0,30.41,NW,311,0.0,1.0,91,0.03,,,0.03,weatherlink.com 1.10,2013-11-26 22:11:00,
2013-11-26 17:26:00,31.9,30.0,30.41,SE,144,0.0,2.0,91,0.02,,,0.03,weatherlink.com 1.10,2013-11-26 22:26:00,
2013-11-26 17:41:00,31.9,30.0,30.41,SE,144,0.0,1.0,92,0.02,,,0.03,weatherlink.com 1.10,2013-11-26 22:41:00,
2013-11-26 17:56:00,32.0,30.0,30.40,SE,144,0.0,1.0,93,0.01,,,0.03,weatherlink.com 1.10,2013-11-26 22:56:00,
2013-11-26 18:11:00,31.9,30.0,30.39,South,172,0.0,1.0,93,0.00,,,0.03,weatherlink.com 1.10,2013-11-26 23:11:00,
2013-11-26 18:26:00,32.0,30.0,30.40,SE,132,1.0,2.0,93,0.00,,,0.03,weatherlink.com 1.10,2013-11-26 23:26:00,
2013-11-26 18:56:00,32.3,31.0,30.39,SE,132,0.0,2.0,94,0.00,,,0.03,weatherlink.com 1.10,2013-11-26 23:56:00,
2013-11-26 19:11:00,32.3,31.0,30.38,SE,132,0.0,1.0,94,0.00,,,0.03,weatherlink.com 1.10,2013-11-27 00:11:00,
2013-11-26 19:26:00,32.4,31.0,30.37,SE,132,0.0,1.0,94,0.00,,,0.03,weatherlink.com 1.10,2013-11-27 00:26:00,
2013-11-26 19:41:00,32.4,31.0,30.36,SE,132,0.0,1.0,95,0.00,,,0.03,weatherlink.com 1.10,2013-11-27 00:41:00,
2013-11-26 19:56:00,32.4,31.0,30.35,SE,132,0.0,1.0,95,0.00,,,0.03,weatherlink.com 1.10,2013-11-27 00:56:00,
2013-11-26 20:11:00,32.5,31.0,30.34,SE,132,0.0,0.0,95,0.01,,,0.04,weatherlink.com 1.10,2013-11-27 01:11:00,
2013-11-26 20:26:00,32.5,31.0,30.32,SE,132,0.0,0.0,95,0.01,,,0.04,weatherlink.com 1.10,2013-11-27 01:26:00,
2013-11-26 20:41:00,32.5,32.0,30.31,SE,132,0.0,2.0,96,0.01,,,0.04,weatherlink.com 1.10,2013-11-27 01:41:00,
2013-11-26 20:57:00,32.6,32.0,30.30,SE,132,0.0,1.0,96,0.00,,,0.04,weatherlink.com 1.10,2013-11-27 01:57:00,
2013-11-26 21:12:00,32.6,32.0,30.28,SE,132,0.0,2.0,96,0.00,,,0.04,weatherlink.com 1.10,2013-11-27 02:12:00,
2013-11-26 21:27:00,32.9,32.0,30.27,West,277,0.0,4.0,96,0.00,,,0.04,weatherlink.com 1.10,2013-11-27 02:27:00,
2013-11-26 21:42:00,33.3,32.0,30.25,ENE,62,0.0,2.0,96,0.00,,,0.04,weatherlink.com 1.10,2013-11-27 02:42:00,
2013-11-26 21:57:00,33.3,32.0,30.23,SSE,163,0.0,3.0,96,0.00,,,0.04,weatherlink.com 1.10,2013-11-27 02:57:00,
2013-11-26 22:12:00,33.5,33.0,30.22,SSE,163,0.0,2.0,97,0.00,,,0.04,weatherlink.com 1.10,2013-11-27 03:12:00,
2013-11-26 22:27:00,34.2,34.0,30.20,NW,320,2.0,4.0,97,0.00,,,0.04,weatherlink.com 1.10,2013-11-27 03:27:00,
2013-11-26 22:42:00,35.4,35.0,30.18,NE,56,4.0,4.0,98,0.00,,,0.04,weatherlink.com 1.10,2013-11-27 03:42:00,
2013-11-26 22:57:00,37.0,37.0,30.15,SSW,210,1.0,3.0,98,0.00,,,0.04,weatherlink.com 1.10,2013-11-27 03:57:00,
2013-11-26 23:12:00,38.6,38.0,30.14,SSW,203,2.0,4.0,98,0.00,,,0.04,weatherlink.com 1.10,2013-11-27 04:12:00,
2013-11-26 23:27:00,39.2,39.0,30.13,NE,47,2.0,7.0,98,0.02,,,0.06,weatherlink.com 1.10,2013-11-27 04:27:00,
2013-11-26 23:42:00,39.7,39.0,30.09,NNW,343,2.0,7.0,98,0.03,,,0.07,weatherlink.com 1.10,2013-11-27 04:42:00,
2013-11-26 23:57:00,40.8,40.0,30.06,WSW,244,2.0,8.0,98,0.03,,,0.07,weatherlink.com 1.10,2013-11-27 04:57:00,